sat.trackr.live / text

‹ back to catalog

STARLINK-5925

NORAD 55945 · 2023-037AH

PAYLOAD ACTIVE UNKNOWN

§ Identity

Operator
Country
US
Launch date
2023-03-17
Launch site
AFWTR
Launch vehicle
Mass (kg)
RCS (m²)

Purposes: comms

External: N2YO · Heavens-Above · Gunter

§ Orbital elements

Epoch: 2026-09-20T22:00:03.000096Z

Period
95.90 min
Inclination
70.0034°
Eccentricity
0.0003547
Mean motion
15.01524529 rev/d
Perigee alt
559.7 km
Apogee alt
564.7 km
Semi-major
6,940.3 km
B*
1.9956e-3
RAAN
152.1279°
Arg perigee
319.3459°
Mean anomaly
116.1510°
Rev number
577

§ Raw data

STARLINK-59251 55945U 23037AH  26263.91670139  .00025879  00000+0  19956-2 0  99902 55945  70.0034 152.1279 0003547 319.3459 116.1510 15.01524529  5772

JSON: /api/v1/satellites/55945 · /tle

For live sub-satellite position, see the globe view (requires WebGL).

§ Visibility from observer

Set your observer location to see the next 7 days of passes ≥ 10°. The values pass through the URL so the page stays shareable.

No JS? Fill the form by hand. The geolocation button needs JavaScript.